Wetbulb
50.16 44.47 42.06 45.39 47.10 48.85 48.24 47.47 49.96 57.77 61.60 58.43 58.45 57.22 59.66 63.24 64.27 63.70 63.65 63.55 63.70 64.78 65.51 66.48 69.37 70.61 70.13 69.50 69.36 68.58 69.15 68.60 69.10 69.72 69.48 69.35 68.29 68.10 70.69 71.51 70.95 71.23 71.33 73.06
45.65 42.17 47.49 50.18 50.67 49.61 48.69 46.28 48.18 59.55 61.07 57.90 57.43 57.75 60.11 61.67 63.17 64.04 63.61 63.16 63.50 64.19 64.60 65.17 66.65 68.40 68.57 67.59 69.45 69.18 69.86 68.67 68.33 68.95 70.10 69.74 69.44 70.48 70.80 71.68 71.39 71.96 71.52 72.65
43.10 46.97 51.91 50.76 48.79 47.62 46.12 43.70 46.36 53.68 58.58 58.61 56.97 54.96 55.91 59.67 61.25 64.30 64.39 64.60 64.54 64.84 64.62 64.30 65.76 66.77 67.83 67.29 69.76 69.39 70.45 68.68 68.68 69.45 70.31 70.12 70.29 68.72 68.76 69.79 70.73 72.89 72.66 73.23
45.81 50.11 50.27 49.00 48.09 46.72 41.26 49.19 50.54 55.62 51.60 47.22 55.55 43.38 55.77 57.21 58.19 61.85 62.14 62.95 63.10 64.84 65.59 65.22 65.58 66.43 67.43 67.81 70.20 70.33 70.77 69.56 69.39 70.64 69.55 69.04 68.41 67.37 67.95 69.22 70.48 72.73 72.98 72.72
44.13 46.48 46.66 46.17 47.91 48.15 46.04 49.94 50.23 54.08 50.20 52.49 51.93 49.27 50.99 58.42 58.53 59.77 61.55 62.28 62.90 65.09 65.50 65.38 65.15 66.71 67.48 69.13 70.29 70.50 70.50 70.40 70.09 71.26 70.54 69.36 68.50 70.22 69.51 70.54 69.88 71.63 72.13 72.66
46.74 50.48 47.72 47.15 49.54 49.54 50.79 49.23 51.70 50.04 48.46 41.86 49.88 49.60 48.04 55.80 57.96 60.70 63.09 63.78 64.29 64.42 65.47 66.51 67.06 67.86 67.74 69.45 70.07 71.43 70.29 69.86 68.88 70.40 71.08 70.13 68.40 68.57 67.73 68.70 69.72 71.02 71.44 72.03
45.80 47.22 48.91 49.18 45.36 46.69 46.74 42.88 37.40 36.49 40.00 40.15 47.82 49.79 49.93 57.98 61.61 61.82 62.52 64.00 64.59 65.06 65.68 65.74 66.38 67.25 67.74 68.32 69.37 71.28 70.44 69.38 69.23 69.64 71.10 70.49 68.87 66.06 66.96 68.63 69.56 69.54 70.42 71.05
38.02 38.96 46.71 49.26 45.82 43.44 43.04 43.50 38.85 35.36 36.01 40.88 50.33 46.49 49.62 58.57 62.70 62.74 63.09 63.10 63.04 63.49 66.17 65.36 66.08 67.16 67.65 67.95 69.35 70.02 70.63 69.78 70.01 70.14 70.72 71.01 69.73 68.83 67.15 68.76 70.02 70.27 70.54 70.77
37.59 41.10 50.25 51.13 48.93 47.89 43.12 41.14 45.85 41.88 38.92 39.57 46.84 49.42 53.86 57.19 55.58 56.62 57.70 59.63 60.85 64.75 65.54 66.73 66.59 67.80 68.26 68.32 69.24 69.54 70.45 70.68 70.38 70.68 70.38 70.59 70.94 70.07 69.77 69.57 69.00 69.40 70.28 71.36
41.73 38.78 44.36 50.34 49.67 47.61 44.75 47.35 41.94 39.65 35.11 33.71 45.13 46.32 46.89 52.66 50.99 52.57 53.06 55.60 57.37 59.00 61.27 64.47 65.11 65.91 68.09 69.08 69.10 69.27 69.74 70.87 71.08 71.04 70.97 71.57 71.02 71.28 70.66 69.67 68.04 69.83 69.45 72.64
41.65 38.92 41.47 46.46 43.08 43.67 44.92 42.72 43.57 42.26 39.61 36.41 39.28 43.49 55.61 52.25 51.52 49.98 50.95 53.82 54.68 57.30 58.96 59.83 62.98 65.91 67.37 67.69 68.12 68.36 68.18 69.06 68.18 68.63 68.79 71.34 72.15 71.91 71.61 71.39 71.54 71.57 70.90 71.20
42.96 37.00 35.14 42.06 48.16 49.28 47.65 43.45 42.94 41.44 40.41 42.39 42.34 46.37 55.59 53.06 52.82 51.25 50.63 51.88 53.97 55.68 57.07 58.42 58.94 62.07 64.73 65.40 66.81 67.37 67.64 67.06 67.33 68.32 68.86 69.89 70.55 71.30 71.58 71.80 71.86 71.46 70.67 70.18
42.50 37.17 33.57 38.90 43.39 45.54 42.51 42.73 39.96 40.61 40.14 41.17 38.37 43.37 52.65 53.23 52.38 50.97 49.46 51.16 52.86 54.63 55.05 55.98 57.50 58.49 60.56 62.76 65.05 65.95 66.94 67.17 67.22 67.08 67.51 68.59 68.57 70.35 70.34 70.98 71.70 72.11 71.08 70.66
48.29 36.96 38.17 34.69 41.04 41.64 40.25 43.26 43.22 39.42 35.59 41.91 42.17 45.64 47.54 48.91 48.74 49.53 49.49 50.64 51.70 52.76 53.62 55.01 55.92 56.52 57.96 59.41 60.96 63.67 65.18 66.61 67.26 66.72 67.04 66.94 66.92 66.79 67.44 69.42 70.53 71.17 70.86 70.33
42.83 37.42 37.63 44.32 43.93 43.74 42.57 43.27 44.48 38.99 41.60 42.80 45.27 45.65 46.46 47.63 48.15 48.60 49.53 51.60 51.04 50.97 51.71 53.05 54.57 56.11 56.75 57.41 59.18 59.95 61.07 62.48 64.87 65.34 65.77 65.92 67.62 67.42 68.70 68.43 67.26 67.66 70.55 72.36
40.87 38.37 38.48 39.81 46.42 44.76 41.95 44.34 46.53 48.97 50.87 48.86 47.63 44.96 49.18 49.32 49.93 48.70 49.42 50.62 51.01 51.46 52.34 53.29 54.44 55.45 56.49 56.65 56.64 59.84 59.25 59.91 60.87 60.66 61.31 63.20 64.87 65.73 66.41 68.43 67.91 68.12 68.34 71.00
41.89 36.94 35.14 33.27 42.73 44.00 37.81 41.43 43.43 48.31 51.83 49.53 45.25 46.99 49.03 48.30 49.62 50.16 50.16 50.75 50.94 51.96 52.61 53.38 54.08 54.63 54.94 56.76 57.91 56.71 58.03 59.46 59.28 59.50 60.01 60.39 60.68 60.97 61.89 65.38 67.22 66.14 66.86 68.86
37.61 36.95 34.97 32.73 37.11 31.61 41.98 46.94 46.41 47.90 49.87 49.76 48.49 48.81 49.48 49.63 50.41 49.93 51.08 50.23 49.87 50.35 51.75 52.58 54.26 54.22 54.97 56.40 56.80 57.86 58.63 58.81 59.17 59.48 60.28 60.20 60.23 60.50 61.31 61.94 62.24 63.48 66.34 66.90
39.11 35.83 33.00 31.81 30.59 37.24 43.83 45.09 43.84 41.76 44.31 51.04 49.33 49.91 50.61 49.94 49.56 46.80 50.17 50.25 49.38 48.36 48.93 50.34 51.90 50.70 50.61 51.33 53.21 55.20 55.43 55.81 56.02 56.30 57.34 58.36 59.09 58.85 59.31 60.46 61.22 62.27 63.48 63.18
39.36 37.25 34.86 33.31 30.88 28.89 38.26 46.15 48.48 48.89 39.60 49.83 50.54 48.82 47.92 48.38 41.72 44.13 48.72 49.88 48.99 49.21 49.92 49.53 49.80 50.37 50.55 50.41 52.60 51.51 50.90 51.57 51.86 53.01 54.49 55.76 56.91 56.67 56.45 56.98 58.34 60.67 61.42 62.54
35.24 32.99 31.13 33.08 31.94 38.35 44.35 46.35 48.42 36.61 38.19 48.56 50.17 49.22 48.33 43.82 45.06 46.06 48.92 48.12 48.22 49.08 49.08 49.34 49.38 48.75 48.88 49.66 49.94 48.82 48.85 49.01 50.44 51.90 52.77 53.43 53.77 53.94 54.30 54.90 55.41 56.67 58.16 59.86
35.05 31.13 28.91 32.25 28.78 29.35 47.10 46.85 40.66 42.78 44.16 46.42 47.41 46.41 45.61 46.54 47.58 47.59 47.65 46.89 47.64 47.77 48.36 48.75 47.66 47.97 48.24 48.61 47.98 47.11 47.90 49.08 49.50 49.68 49.41 49.74 50.59 52.04 52.82 52.15 52.51 53.19 53.25 54.36
32.28 38.22 34.82 36.39 35.85 43.62 45.92 45.88 46.74 47.41 45.77 45.22 47.31 48.70 47.71 47.26 46.69 46.84 45.72 46.01 45.95 46.73 46.01 46.48 46.68 46.91 47.66 47.87 47.08 46.57 46.94 47.24 46.92 45.97 45.55 46.19 47.71 48.14 48.66 48.66 50.00 50.77 51.58 51.67
40.41 40.98 36.29 37.89 42.38 43.31 45.09 47.15 48.16 47.59 47.50 47.61 47.73 47.11 47.50 45.57 46.17 45.82 44.32 45.29 45.63 45.10 44.89 45.25 45.60 45.36 44.94 46.13 46.56 46.09 46.00 45.64 44.77 43.62 43.60 44.16 43.77 44.60 45.07 47.36 48.81 48.73 49.13 49.36
40.95 41.31 38.39 37.72 41.11 42.94 46.55 46.97 47.36 47.20 48.70 48.36 47.42 47.40 47.43 46.20 45.57 45.10 45.23 44.82 45.08 44.66 44.58 45.30 44.54 44.22 44.43 45.09 44.76 44.82 44.77 44.29 42.84 42.54 42.54 42.07 42.73 41.66 42.18 43.87 45.05 46.69 47.18 47.53
41.97 40.37 37.49 37.14 43.18 42.29 42.86 45.97 47.69 46.35 47.14 47.19 46.62 45.79 47.06 46.23 45.43 46.33 45.03 45.26 45.13 44.62 44.89 43.84 43.57 44.23 43.66 43.92 44.17 44.42 44.33 43.36 41.45 40.84 41.15 41.08 40.82 40.92 41.89 42.16 43.29 45.89 45.85 45.10
MSLP
1008.75 1009.40 1009.22 1009.26 1009.36 1009.18 1009.17 1009.04 1008.79 1008.79 1009.75 1011.37 1012.16 1013.14 1013.09 1013.21 1013.37 1013.01 1012.64 1012.81 1013.12 1013.61 1014.34 1014.74 1015.61 1016.35 1017.24 1017.80 1018.19 1018.54 1018.99 1019.43 1019.69 1020.38 1020.85 1021.15 1021.24 1021.28 1021.23 1021.28 1021.13 1021.12 1021.20 1021.16
1009.35 1009.32 1009.01 1009.03 1009.05 1009.04 1008.95 1009.00 1009.13 1009.33 1009.71 1010.29 1012.60 1013.48 1014.14 1013.86 1013.42 1013.11 1012.62 1012.85 1013.26 1013.64 1014.50 1015.11 1015.80 1016.57 1016.95 1017.55 1017.95 1018.41 1018.73 1019.33 1019.65 1019.99 1020.63 1020.94 1021.15 1021.36 1021.29 1021.08 1021.16 1021.20 1021.37 1021.15
1009.35 1008.75 1008.68 1008.94 1008.83 1008.91 1008.74 1008.80 1008.76 1009.23 1010.31 1011.23 1012.50 1013.79 1013.63 1013.59 1013.46 1013.41 1013.07 1012.83 1013.27 1013.58 1014.41 1015.01 1015.72 1016.17 1016.69 1017.36 1017.73 1018.24 1018.63 1019.18 1019.55 1020.00 1020.41 1021.09 1021.36 1021.59 1021.51 1021.33 1021.44 1021.21 1021.29 1021.21
1008.92 1008.33 1008.53 1008.63 1008.53 1008.51 1008.53 1007.86 1008.18 1009.01 1009.84 1011.03 1011.53 1012.75 1012.59 1012.71 1013.23 1013.29 1013.37 1012.99 1013.33 1013.50 1014.40 1015.13 1015.43 1016.01 1016.34 1017.06 1017.57 1018.10 1018.56 1019.06 1019.59 1020.07 1020.27 1020.85 1021.39 1021.68 1021.60 1021.31 1021.39 1021.16 1021.26 1021.37
1008.26 1007.89 1007.99 1008.04 1007.62 1007.69 1007.51 1007.29 1007.83 1008.25 1009.69 1010.69 1011.63 1012.11 1011.86 1012.36 1013.15 1013.06 1013.09 1013.43 1013.61 1013.77 1014.05 1014.79 1015.01 1015.51 1015.95 1016.75 1017.23 1017.81 1018.45 1018.85 1019.44 1020.11 1020.29 1020.81 1021.25 1021.31 1021.52 1021.37 1021.38 1021.32 1021.21 1021.32
1007.96 1006.98 1007.10 1006.68 1006.43 1006.48 1006.61 1007.23 1007.57 1008.61 1009.75 1011.06 1011.18 1011.81 1012.67 1011.73 1011.52 1012.65 1012.96 1013.22 1013.31 1013.82 1014.44 1014.74 1014.99 1015.37 1015.80 1016.51 1017.16 1017.62 1018.19 1018.68 1019.20 1019.85 1020.25 1020.69 1021.13 1021.34 1021.55 1021.47 1021.52 1021.45 1021.41 1021.19
1007.69 1006.81 1006.33 1006.11 1006.28 1005.94 1006.45 1007.99 1009.01 1010.23 1010.73 1010.93 1010.55 1012.24 1011.26 1011.49 1011.23 1011.60 1012.27 1012.43 1013.23 1013.57 1013.97 1014.60 1015.02 1015.48 1015.89 1016.33 1016.96 1017.54 1018.04 1018.65 1019.03 1019.63 1020.08 1020.49 1020.84 1021.20 1021.27 1021.32 1021.27 1021.54 1021.51 1021.37
1008.41 1007.08 1005.88 1005.40 1005.52 1005.73 1006.49 1007.69 1008.95 1009.80 1010.90 1010.85 1011.21 1012.23 1012.76 1012.37 1012.20 1013.17 1013.77 1013.89 1014.18 1014.33 1014.42 1014.62 1014.81 1015.24 1015.71 1016.25 1016.80 1017.28 1017.91 1018.27 1018.68 1019.20 1019.81 1020.21 1020.61 1020.87 1021.00 1021.02 1021.15 1021.21 1021.28 1021.19
1008.63 1007.30 1005.83 1005.18 1004.92 1005.28 1006.32 1007.32 1008.11 1009.54 1010.49 1010.99 1012.38 1013.67 1013.83 1014.14 1014.71 1014.86 1015.48 1015.92 1016.19 1015.71 1015.53 1015.26 1015.63 1015.71 1016.04 1016.53 1016.71 1016.93 1017.51 1017.98 1018.39 1018.79 1019.38 1019.85 1020.17 1020.37 1020.57 1020.67 1020.86 1020.97 1020.87 1020.72
1008.79 1008.19 1006.69 1005.69 1005.15 1005.11 1005.76 1007.00 1008.50 1010.05 1011.19 1012.33 1013.10 1014.05 1014.87 1015.57 1016.17 1016.50 1016.79 1017.12 1017.17 1016.89 1016.70 1016.55 1016.46 1016.45 1016.52 1016.86 1017.38 1017.64 1017.50 1017.67 1018.19 1018.66 1018.98 1019.44 1019.79 1019.90 1019.91 1020.42 1020.62 1020.90 1020.71 1020.47
1008.97 1008.98 1008.19 1006.96 1006.44 1006.23 1006.75 1007.47 1008.92 1010.15 1011.17 1012.38 1014.08 1015.46 1015.66 1016.43 1017.28 1017.85 1018.13 1018.19 1018.15 1018.18 1018.14 1018.09 1017.79 1017.43 1016.63 1017.48 1017.53 1017.63 1018.67 1018.48 1019.06 1019.17 1019.39 1019.55 1019.63 1019.76 1019.86 1020.18 1020.24 1020.41 1020.32 1020.29
1009.96 1010.24 1009.94 1008.61 1007.17 1006.90 1006.95 1008.06 1009.03 1010.55 1011.77 1012.70 1013.95 1016.31 1016.73 1017.32 1018.20 1018.70 1018.89 1018.81 1018.73 1018.90 1018.85 1018.70 1018.86 1018.50 1017.79 1018.70 1018.27 1018.69 1018.34 1019.31 1019.59 1019.44 1019.41 1019.49 1019.65 1019.73 1019.98 1020.13 1020.13 1019.93 1020.13 1020.04
1010.34 1010.80 1010.60 1009.52 1008.59 1008.27 1008.68 1009.13 1009.62 1010.18 1011.10 1012.44 1014.29 1016.90 1017.45 1018.09 1018.78 1019.09 1019.23 1019.30 1019.45 1019.59 1019.37 1019.27 1019.31 1019.38 1018.85 1019.23 1019.28 1019.07 1019.51 1019.53 1019.65 1019.66 1019.65 1019.66 1019.58 1019.82 1019.99 1019.88 1019.88 1019.89 1020.07 1020.04
1010.46 1011.51 1011.74 1011.61 1011.19 1010.63 1010.23 1009.32 1009.40 1010.39 1011.48 1012.49 1014.06 1016.57 1017.90 1018.43 1018.78 1019.32 1019.43 1019.77 1019.83 1019.87 1019.83 1019.75 1019.78 1019.77 1019.71 1019.96 1019.98 1019.61 1019.19 1019.30 1019.49 1020.02 1020.43 1020.40 1020.42 1020.13 1020.07 1019.97 1020.10 1020.14 1020.07 1020.03
1011.33 1012.23 1012.02 1011.43 1011.19 1011.09 1010.83 1010.28 1009.64 1010.03 1010.93 1012.17 1014.20 1014.95 1016.80 1017.93 1018.58 1018.96 1019.33 1019.71 1019.91 1020.10 1020.08 1020.11 1020.13 1020.13 1020.23 1020.27 1020.52 1020.41 1019.89 1019.67 1020.14 1020.49 1020.23 1020.70 1021.13 1020.71 1020.33 1020.09 1020.12 1020.08 1020.33 1020.23
1012.33 1013.13 1012.94 1012.84 1011.91 1011.67 1011.28 1010.51 1009.96 1009.90 1010.64 1012.41 1014.25 1016.05 1016.95 1017.78 1018.43 1018.85 1019.13 1019.44 1019.63 1019.94 1020.18 1020.40 1020.42 1020.57 1020.67 1020.85 1020.75 1020.57 1020.50 1020.65 1020.79 1020.91 1020.82 1020.77 1021.01 1021.29 1020.88 1020.43 1020.48 1020.22 1020.11 1020.17
1013.57 1014.23 1014.74 1014.60 1013.50 1012.94 1012.51 1012.04 1011.27 1011.12 1011.07 1011.91 1013.87 1014.92 1016.46 1017.46 1017.99 1018.39 1018.87 1019.38 1019.65 1019.95 1020.13 1020.59 1020.80 1020.79 1020.88 1021.15 1021.24 1021.05 1021.29 1021.30 1021.54 1021.72 1021.85 1021.69 1021.41 1021.35 1020.91 1021.16 1020.99 1020.38 1020.25 1020.22
1014.60 1015.27 1015.65 1015.97 1014.60 1013.74 1012.78 1012.35 1011.93 1012.17 1012.31 1012.81 1013.76 1015.31 1016.47 1017.03 1017.70 1018.30 1018.80 1019.34 1020.08 1020.33 1020.52 1020.80 1021.06 1021.16 1021.16 1021.31 1021.16 1021.41 1021.54 1021.80 1022.13 1022.12 1021.78 1021.47 1021.55 1021.65 1021.17 1021.49 1021.49 1021.22 1020.96 1020.45
1014.91 1015.92 1016.81 1017.03 1016.51 1015.20 1013.38 1012.68 1012.72 1013.05 1014.47 1014.04 1014.75 1016.01 1016.89 1017.68 1018.37 1019.27 1019.30 1019.86 1020.66 1021.25 1021.18 1021.52 1021.90 1022.25 1022.21 1021.97 1021.86 1021.92 1022.44 1022.61 1022.59 1022.68 1022.48 1022.11 1022.05 1021.97 1021.82 1021.79 1021.85 1021.36 1020.93 1021.03
1015.73 1016.35 1017.34 1018.08 1017.63 1016.21 1014.58 1013.69 1013.21 1012.69 1014.69 1015.06 1015.07 1015.85 1016.58 1017.65 1018.85 1019.79 1019.73 1020.13 1021.01 1021.38 1021.67 1022.19 1022.57 1022.91 1023.10 1023.29 1023.02 1023.07 1023.37 1023.47 1023.64 1023.49 1023.13 1022.88 1022.74 1022.65 1022.53 1022.43 1022.43 1022.35 1021.97 1021.25
1017.46 1018.16 1018.55 1018.57 1017.87 1016.41 1015.07 1014.21 1013.28 1014.23 1015.23 1014.89 1015.86 1016.11 1016.95 1017.79 1018.20 1019.46 1020.21 1020.83 1021.00 1021.43 1021.99 1022.41 1022.93 1023.46 1023.66 1023.91 1023.83 1024.13 1024.31 1024.52 1024.60 1024.21 1023.83 1023.59 1023.44 1023.16 1022.88 1022.75 1022.44 1022.21 1021.78 1021.20
1018.40 1018.85 1019.16 1018.91 1018.25 1016.97 1015.21 1014.51 1014.73 1015.68 1015.68 1015.37 1016.22 1016.59 1017.32 1017.77 1018.79 1019.76 1020.43 1021.05 1021.38 1021.94 1022.51 1022.97 1023.64 1024.09 1024.35 1024.32 1024.56 1024.85 1025.01 1025.09 1024.88 1024.73 1024.51 1024.22 1023.89 1023.61 1023.29 1022.97 1022.63 1022.27 1021.91 1021.60
1018.57 1018.07 1018.21 1018.50 1017.94 1016.63 1015.68 1015.49 1015.57 1015.73 1016.12 1016.54 1016.59 1017.29 1017.46 1018.29 1019.25 1019.91 1020.69 1021.24 1021.83 1022.43 1023.09 1023.46 1023.97 1024.53 1024.84 1024.97 1025.17 1025.51 1025.73 1025.48 1025.32 1025.20 1025.11 1024.81 1024.47 1024.09 1023.67 1023.29 1022.84 1022.47 1022.03 1021.77
1017.78 1017.45 1017.93 1017.98 1017.31 1016.57 1016.01 1015.74 1015.66 1015.91 1016.33 1016.61 1017.04 1017.57 1017.92 1018.73 1019.45 1020.21 1020.91 1021.60 1022.25 1022.75 1023.31 1023.66 1024.20 1024.88 1025.26 1025.40 1025.50 1025.70 1025.75 1025.67 1025.65 1025.77 1025.56 1025.21 1024.92 1024.61 1024.21 1023.79 1023.39 1022.99 1022.70 1022.49
1017.41 1017.21 1017.60 1017.78 1017.15 1016.51 1016.03 1015.69 1015.69 1015.99 1016.39 1016.79 1017.13 1017.46 1018.13 1018.72 1019.52 1020.05 1020.91 1021.63 1022.26 1022.79 1023.29 1023.72 1024.47 1025.07 1025.47 1025.59 1025.68 1025.62 1025.60 1025.53 1025.77 1025.84 1025.78 1025.65 1025.37 1025.08 1024.72 1024.30 1023.91 1023.46 1023.16 1023.07
1016.83 1016.77 1017.31 1017.12 1016.90 1016.55 1016.26 1015.81 1015.72 1015.73 1016.13 1016.55 1017.07 1017.62 1018.15 1018.51 1019.36 1020.03 1020.94 1021.36 1022.00 1022.69 1023.21 1023.88 1024.48 1025.07 1025.44 1025.53 1025.64 1025.56 1025.49 1025.46 1025.59 1025.67 1025.62 1025.50 1025.29 1025.12 1024.84 1024.54 1023.93 1023.45 1023.13 1022.81
Wind_Speed
3 4 6 7 6 6 3 4 4 9 16 9 8 15 19 13 6 15 13 12 11 14 13 19 18 17 14 11 11 11 9 6 6 4 3 1 2 1 1 2 2 2 3 1
5 5 8 5 7 7 6 3 1 6 10 9 10 9 6 8 12 15 16 13 13 11 13 15 17 17 16 13 12 9 10 8 5 5 3 2 2 2 1 2 3 3 5 2
6 7 7 6 8 8 7 5 4 7 9 7 14 6 9 8 4 10 11 13 14 18 16 15 15 16 10 12 13 11 12 9 6 6 4 4 4 3 2 1 1 4 5 3
7 7 6 9 10 7 8 8 8 14 6 7 2 5 7 8 10 12 11 12 11 15 10 13 15 14 13 9 8 12 11 9 6 7 4 5 5 4 3 2 2 3 5 5
9 5 7 9 16 8 12 6 8 10 7 7 2 4 6 10 12 9 7 6 4 11 10 11 15 15 13 11 11 12 11 9 7 7 6 4 3 3 1 2 3 2 3 5
8 7 8 11 12 12 10 2 3 5 4 3 7 6 4 14 16 15 5 8 11 9 13 10 11 14 13 12 11 11 12 10 8 7 7 7 7 5 3 2 3 3 3 4
5 6 8 5 7 5 5 7 2 2 1 6 10 8 8 11 17 18 16 17 10 9 11 13 14 14 13 14 13 10 11 8 8 8 7 7 7 7 6 5 4 4 2 2
2 7 6 3 9 7 5 10 7 5 5 5 8 5 4 6 7 7 4 8 3 1 6 9 11 12 13 13 13 13 11 10 8 8 8 7 7 5 5 5 4 4 3 3
1 5 4 4 5 9 4 3 8 2 1 2 6 4 7 11 12 14 12 12 8 8 7 10 8 7 6 6 11 15 13 11 10 9 7 7 6 7 6 6 5 4 4 4
3 3 1 8 1 2 8 4 3 3 3 3 4 4 2 2 5 8 10 9 8 10 11 8 7 7 6 6 5 1 8 11 10 8 7 6 7 7 6 5 6 6 6 5
4 4 9 3 1 8 5 3 6 5 4 6 5 1 4 6 5 6 4 6 7 8 7 7 5 3 11 7 7 10 5 6 4 3 1 4 6 7 6 5 6 7 7 7
1 4 2 4 7 4 5 2 5 6 4 2 5 3 4 10 7 5 4 6 7 7 6 7 7 4 9 7 10 10 6 8 5 4 4 2 4 6 6 6 6 6 8 6
4 3 4 10 7 10 7 5 4 2 3 6 7 5 5 10 9 6 6 5 5 6 6 6 7 6 7 6 6 9 7 5 6 7 8 6 5 3 4 6 6 7 7 7
3 4 5 5 4 1 5 11 6 5 3 3 4 11 8 11 11 8 8 9 6 6 6 6 6 7 7 6 4 3 7 6 6 7 6 7 6 6 4 4 4 3 5 6
5 3 2 6 7 5 3 8 14 2 5 5 12 14 16 13 13 9 9 11 10 8 9 8 6 6 6 6 4 4 6 7 5 4 4 3 3 3 5 6 5 6 6 7
6 2 3 6 6 9 7 14 12 6 10 12 15 9 12 11 12 10 9 10 10 9 9 7 7 6 5 4 4 4 6 5 6 6 7 5 4 4 6 7 4 5 5 7
5 3 4 1 4 3 5 7 8 6 6 16 9 10 16 15 14 14 13 12 11 9 9 7 5 6 5 3 3 7 6 5 6 5 3 4 6 5 8 7 6 7 8 8
3 3 3 1 5 4 4 6 7 8 5 9 18 20 17 16 12 8 9 12 10 7 7 5 5 6 6 5 5 4 5 6 5 5 4 5 5 6 7 7 8 6 3 7
5 4 3 4 1 5 2 5 2 5 6 11 15 16 14 13 14 6 9 11 10 6 7 8 8 5 7 8 7 12 11 9 10 9 8 8 7 6 6 6 6 7 7 5
7 7 6 2 3 3 3 2 5 11 1 2 15 18 22 19 10 6 9 13 10 10 10 9 7 8 10 7 9 11 8 8 8 7 7 7 7 6 6 6 5 4 5 5
4 4 4 1 2 4 4 7 3 7 7 5 12 20 19 6 6 9 12 8 8 11 11 9 9 8 7 7 8 8 6 7 5 5 6 6 6 6 5 5 4 5 5 6
3 3 2 2 2 4 4 6 5 5 4 5 6 6 11 15 17 15 13 10 10 11 9 8 8 7 6 7 7 7 7 4 6 6 6 6 6 6 6 7 6 6 5 5
2 7 6 7 7 7 4 5 4 5 6 3 10 8 15 16 14 12 11 10 8 12 8 6 8 7 6 6 6 7 3 5 6 6 6 6 6 7 7 7 7 7 7 7
3 3 3 5 3 3 3 3 5 4 7 8 8 9 11 12 11 11 8 9 10 8 8 6 8 7 5 6 6 5 4 4 6 5 6 6 6 7 6 5 6 6 6 6
6 3 4 2 5 1 3 4 7 5 6 7 6 7 9 13 10 11 11 11 10 8 7 7 7 6 5 5 5 4 4 5 4 3 3 4 3 5 5 5 5 5 4 5
3 6 5 7 6 6 5 2 3 9 8 8 8 5 7 8 10 12 10 10 9 9 7 7 7 7 6 6 4 3 3 4 3 3 3 3 2 3 3 4 6 7 8 10
Wind_Direction
228 101 205 217 204 231 287 315 313 125 140 111 163 166 192 201 191 197 197 184 175 147 160 151 158 157 158 160 161 152 143 162 130 116 117 73 177 97 84 175 176 149 283 172
16 211 226 221 258 261 273 287 16 72 147 96 160 171 241 203 210 213 199 181 163 135 152 148 151 162 163 159 161 147 150 159 166 139 132 142 146 126 213 196 202 207 254 213
167 232 211 218 264 264 265 209 207 145 98 90 144 158 194 226 206 210 219 177 168 156 151 160 159 162 153 150 157 156 159 166 162 133 109 84 64 35 345 311 257 234 217 188
210 238 219 230 251 220 253 215 227 150 136 174 197 231 221 165 199 185 198 170 164 169 150 160 164 164 164 160 146 155 156 161 151 154 133 149 159 171 229 210 222 219 200 203
240 223 207 222 233 188 238 231 203 185 156 106 269 81 297 137 208 183 172 155 131 180 161 161 169 170 172 161 158 159 164 163 146 155 159 163 150 146 174 220 194 249 222 238
236 239 171 215 238 229 234 74 49 66 114 117 202 136 260 188 188 169 151 150 172 175 176 176 173 175 168 172 155 163 169 180 156 158 152 175 177 170 150 135 177 219 211 244
285 257 238 188 239 330 126 72 352 30 116 204 171 183 226 207 173 174 174 202 183 178 160 170 163 172 173 173 167 163 171 179 165 161 165 160 173 180 186 177 173 190 231 228
261 311 179 209 183 195 164 148 156 182 183 225 140 190 309 41 110 100 51 56 360 319 182 167 168 170 176 175 171 167 176 182 168 164 178 174 173 182 187 192 199 196 203 227
262 267 340 339 215 130 270 142 185 83 12 43 141 141 43 65 64 70 69 67 40 47 30 101 81 67 135 176 181 172 172 188 181 172 171 181 184 196 195 195 183 207 209 211
222 271 274 296 280 210 139 190 67 6 182 210 20 69 150 110 68 68 65 54 33 33 34 46 66 82 55 128 70 77 193 184 192 177 171 188 186 208 217 174 202 203 215 217
45 85 302 2 101 202 25 52 58 118 128 163 141 4 277 113 89 95 81 76 49 36 35 34 23 82 85 75 97 81 32 105 77 70 68 208 207 206 210 204 220 195 197 203
44 114 289 257 279 250 149 128 131 131 248 99 120 130 79 112 112 95 78 75 68 50 39 47 48 30 82 87 89 94 107 85 60 35 68 85 256 214 207 215 217 192 199 202
322 4 22 348 13 10 34 359 88 146 80 183 136 180 119 124 123 124 95 71 75 82 47 54 51 45 53 47 99 105 84 91 73 35 31 21 46 22 276 250 217 187 206 217
91 55 126 165 235 278 338 346 23 112 92 155 153 139 173 145 139 143 119 111 99 80 70 53 56 63 57 52 39 97 117 107 96 59 22 14 356 31 29 33 21 322 225 216
85 53 358 69 353 7 323 349 348 332 181 148 182 155 166 148 146 142 140 137 118 101 94 79 61 72 65 68 70 62 66 70 73 123 110 73 342 330 334 2 13 35 344 249
356 358 20 40 312 2 9 4 0 11 107 69 106 77 137 140 134 136 134 130 125 123 109 100 96 81 74 74 88 85 62 79 63 46 57 33 58 30 19 360 322 345 346 307
58 81 53 49 309 153 18 332 346 344 51 140 153 168 149 146 147 149 140 136 126 119 107 108 118 107 106 119 130 108 112 101 95 94 71 60 47 36 33 354 10 15 354 338
89 78 85 228 358 126 135 290 36 63 65 99 107 138 150 151 142 126 128 137 133 128 115 104 89 67 52 33 42 92 91 78 78 73 63 65 60 41 36 8 356 345 330 355
85 100 62 107 124 291 2 44 71 23 16 135 132 138 128 120 111 79 122 116 120 118 101 84 83 72 55 41 39 63 52 45 42 32 35 36 31 24 18 13 351 336 352 334
57 70 112 109 104 200 254 314 313 95 352 354 140 141 139 140 132 170 131 120 113 103 100 95 90 79 61 37 65 67 52 48 36 11 14 22 24 9 17 14 344 299 294 300
358 12 117 109 191 281 309 321 320 107 230 148 162 154 153 142 161 141 128 117 110 112 109 98 84 80 79 61 68 64 57 47 16 14 16 16 11 345 353 335 321 312 313 311
138 110 219 79 102 265 304 6 100 218 7 112 111 124 106 120 119 127 125 123 115 111 99 97 96 90 78 79 74 58 51 26 32 25 15 0 352 353 354 341 333 323 318 312
336 173 181 155 214 232 285 111 103 123 115 64 115 119 122 125 130 132 130 130 118 117 112 110 109 91 72 78 85 79 44 48 32 26 7 355 3 4 356 351 347 355 1 2
280 159 126 66 294 180 149 82 100 110 125 138 140 138 133 136 143 139 128 125 125 125 119 113 100 98 83 74 80 100 83 69 58 30 7 360 360 356 349 349 355 349 353 356
202 119 172 255 273 38 212 183 151 120 132 129 148 149 155 145 150 141 142 138 142 139 126 118 118 118 115 107 89 77 72 70 55 41 16 3 2 343 328 327 320 326 317 333
180 183 148 219 215 160 236 281 261 161 171 163 155 135 149 149 151 144 154 151 149 145 138 131 135 132 143 119 109 83 87 74 49 9 344 317 328 323 322 329 327 315 307 318